�������l�o���
Date,Time,MP-1(��Sv/h),MP-2(��Sv/h),MP-3(��Sv/h),MP-4(��Sv/h),MP-5(��Sv/h),MP-6(��Sv/h),MP-7(��Sv/h),MP-8(��Sv/h),����,����(m/s),���J
2023/08/16,00:00,0.522,0.783,0.483,0.961,0.693,0.316,0.566,0.527,��,8.7,��
2023/08/16,00:10,0.522,0.784,0.485,0.959,0.694,0.316,0.565,0.527,��,8.9,��
2023/08/16,00:20,0.522,0.782,0.483,0.961,0.695,0.317,0.566,0.526,��,7.7,��
2023/08/16,00:30,0.523,0.783,0.484,0.959,0.695,0.318,0.567,0.526,��,8.5,��
2023/08/16,00:40,0.522,0.782,0.484,0.959,0.694,0.317,0.566,0.528,��,8.0,��
2023/08/16,00:50,0.521,0.783,0.483,0.959,0.693,0.317,0.565,0.527,��,7.9,��
2023/08/16,01:00,0.522,0.784,0.483,0.962,0.693,0.318,0.566,0.527,��,9.0,��
2023/08/16,01:10,0.522,0.784,0.483,0.958,0.695,0.318,0.566,0.528,��,7.1,��
2023/08/16,01:20,0.521,0.783,0.484,0.961,0.694,0.317,0.567,0.527,��,6.9,��
2023/08/16,01:30,0.519,0.782,0.483,0.960,0.694,0.319,0.566,0.526,��,7.3,��
2023/08/16,01:40,0.521,0.782,0.483,0.960,0.694,0.318,0.564,0.526,��,7.3,��
2023/08/16,01:50,0.523,0.784,0.483,0.963,0.695,0.317,0.565,0.526,��,6.6,��
2023/08/16,02:00,0.520,0.783,0.484,0.959,0.695,0.317,0.567,0.526,��,7.4,��
2023/08/16,02:10,0.522,0.784,0.484,0.962,0.697,0.317,0.567,0.527,��,7.7,��
2023/08/16,02:20,0.522,0.785,0.484,0.960,0.695,0.317,0.565,0.526,��,7.8,��
2023/08/16,02:30,0.524,0.784,0.485,0.959,0.694,0.318,0.566,0.527,��,8.1,��
2023/08/16,02:40,0.522,0.783,0.484,0.960,0.696,0.318,0.565,0.527,��,7.3,��
2023/08/16,02:50,0.523,0.785,0.483,0.962,0.695,0.317,0.565,0.528,��,6.4,��
2023/08/16,03:00,0.523,0.784,0.484,0.961,0.694,0.318,0.566,0.526,��,7.2,��
2023/08/16,03:10,0.524,0.785,0.485,0.960,0.696,0.318,0.566,0.528,��쓌,7.3,��
2023/08/16,03:20,0.521,0.784,0.483,0.961,0.697,0.318,0.564,0.527,��,6.6,��
2023/08/16,03:30,0.522,0.785,0.484,0.960,0.697,0.317,0.566,0.527,��,6.8,��
2023/08/16,03:40,0.523,0.784,0.484,0.963,0.695,0.318,0.566,0.527,��,6.4,��
2023/08/16,03:50,0.524,0.784,0.484,0.961,0.697,0.317,0.566,0.528,��,6.6,��
2023/08/16,04:00,0.523,0.785,0.484,0.961,0.695,0.317,0.564,0.527,��쓌,6.8,��
2023/08/16,04:10,0.522,0.784,0.484,0.961,0.697,0.318,0.566,0.528,��쓌,6.8,��
2023/08/16,04:20,0.524,0.785,0.485,0.961,0.696,0.318,0.566,0.528,��,6.0,��
2023/08/16,04:30,0.522,0.784,0.484,0.962,0.695,0.318,0.567,0.527,��,6.8,��
2023/08/16,04:40,0.524,0.783,0.485,0.961,0.696,0.319,0.565,0.526,��,7.4,��
2023/08/16,04:50,0.525,0.783,0.483,0.960,0.695,0.318,0.566,0.527,��,6.4,��
2023/08/16,05:00,0.525,0.786,0.484,0.963,0.696,0.318,0.568,0.526,��,6.8,��
2023/08/16,05:10,0.524,0.785,0.486,0.964,0.696,0.319,0.566,0.527,��,7.1,��
2023/08/16,05:20,0.524,0.786,0.484,0.959,0.696,0.318,0.565,0.526,��,6.3,�L
2023/08/16,05:30,0.522,0.787,0.485,0.959,0.698,0.318,0.566,0.528,��쓌,7.4,��
2023/08/16,05:40,0.523,0.785,0.485,0.961,0.697,0.318,0.567,0.527,��,7.6,��
2023/08/16,05:50,0.521,0.787,0.485,0.959,0.696,0.317,0.565,0.527,��,9.1,��
2023/08/16,06:00,0.522,0.787,0.485,0.962,0.695,0.318,0.566,0.527,��쓌,9.8,��
2023/08/16,06:10,0.525,0.786,0.484,0.962,0.694,0.318,0.567,0.529,��쓌,8.3,��
2023/08/16,06:20,0.523,0.785,0.485,0.961,0.697,0.318,0.566,0.528,��쓌,6.2,��
2023/08/16,06:30,0.524,0.785,0.483,0.962,0.698,0.317,0.568,0.528,��,6.7,��
2023/08/16,06:40,0.523,0.786,0.485,0.961,0.696,0.317,0.567,0.527,��,6.3,��
2023/08/16,06:50,0.525,0.788,0.485,0.961,0.696,0.317,0.566,0.529,��,6.1,��
2023/08/16,07:00,0.525,0.787,0.484,0.962,0.696,0.319,0.567,0.527,��쓌,7.0,��
2023/08/16,07:10,0.525,0.787,0.485,0.964,0.699,0.319,0.567,0.526,��쓌,7.9,��
2023/08/16,07:20,0.524,0.788,0.484,0.962,0.699,0.319,0.568,0.528,��쓌,8.7,��
2023/08/16,07:30,0.527,0.786,0.486,0.960,0.701,0.318,0.568,0.528,��쓌,8.1,��
2023/08/16,07:40,0.525,0.788,0.486,0.962,0.699,0.319,0.568,0.528,��쓌,8.0,�L
2023/08/16,07:50,0.524,0.787,0.487,0.961,0.700,0.318,0.569,0.527,��쓌,8.6,�L
2023/08/16,08:00,0.526,0.788,0.488,0.964,0.700,0.318,0.568,0.528,��쓌,9.8,��
2023/08/16,08:10,0.524,0.786,0.486,0.963,0.700,0.318,0.567,0.527,��쓌,9.2,��
2023/08/16,08:20,0.524,0.788,0.488,0.964,0.699,0.319,0.568,0.528,��쓌,9.0,��
2023/08/16,08:30,0.525,0.788,0.485,0.965,0.699,0.320,0.568,0.528,��쓌,10.0,��
2023/08/16,08:40,0.525,0.788,0.488,0.964,0.697,0.319,0.569,0.527,��쓌,9.4,��
2023/08/16,08:50,0.525,0.790,0.486,0.965,0.699,0.319,0.568,0.525,��쓌,10.7,��
2023/08/16,09:00,0.526,0.791,0.488,0.964,0.698,0.320,0.569,0.526,��쓌,11.9,��
2023/08/16,09:10,0.525,0.791,0.487,0.966,0.701,0.319,0.567,0.526,��쓌,10.6,��
2023/08/16,09:20,0.526,0.790,0.488,0.966,0.702,0.319,0.569,0.526,��쓌,8.4,��
2023/08/16,09:30,0.525,0.792,0.489,0.964,0.699,0.318,0.568,0.526,��쓌,9.8,��
2023/08/16,09:40,0.527,0.791,0.488,0.966,0.697,0.318,0.569,0.527,��쓌,12.5,��
2023/08/16,09:50,0.527,0.790,0.489,0.965,0.699,0.317,0.567,0.528,��쓌,11.3,��
2023/08/16,10:00,0.527,0.791,0.489,0.966,0.702,0.317,0.567,0.527,��쓌,11.9,�L
2023/08/16,10:10,0.527,0.794,0.488,0.966,0.703,0.319,0.566,0.528,��쓌,11.6,��
2023/08/16,10:20,0.528,0.794,0.488,0.968,0.703,0.319,0.568,0.528,��쓌,12.5,��
2023/08/16,10:30,0.529,0.793,0.488,0.966,0.704,0.318,0.568,0.528,��쓌,13.1,��
2023/08/16,10:40,0.529,0.792,0.490,0.970,0.704,0.318,0.569,0.528,��쓌,14.1,��
2023/08/16,10:50,0.526,0.796,0.490,0.968,0.705,0.318,0.566,0.530,��쓌,11.3,��
2023/08/16,11:00,0.528,0.792,0.491,0.967,0.703,0.319,0.567,0.528,��쓌,9.2,��
2023/08/16,11:10,0.529,0.793,0.489,0.966,0.706,0.319,0.568,0.527,��쓌,12.7,��
2023/08/16,11:20,0.528,0.794,0.490,0.968,0.706,0.320,0.569,0.528,��쓌,11.8,��
2023/08/16,11:30,0.530,0.796,0.491,0.969,0.707,0.320,0.568,0.529,��쓌,11.7,��
2023/08/16,11:40,0.529,0.797,0.492,0.970,0.707,0.320,0.569,0.529,��쓌,11.8,��
2023/08/16,11:50,0.530,0.799,0.490,0.970,0.707,0.321,0.569,0.530,��쓌,10.5,��
2023/08/16,12:00,0.530,0.797,0.491,0.968,0.706,0.320,0.568,0.529,��쓌,10.8,��
2023/08/16,12:10,0.531,0.795,0.491,0.968,0.708,0.321,0.569,0.530,��쓌,11.6,��
2023/08/16,12:20,0.530,0.799,0.491,0.969,0.709,0.320,0.568,0.530,��쓌,11.3,��
2023/08/16,12:30,0.531,0.799,0.491,0.968,0.708,0.322,0.568,0.531,��쓌,10.9,��
2023/08/16,12:40,0.532,0.800,0.492,0.967,0.709,0.320,0.569,0.530,��쓌,13.5,��
2023/08/16,12:50,0.531,0.798,0.491,0.969,0.708,0.321,0.568,0.531,��쓌,12.7,��
2023/08/16,13:00,0.531,0.798,0.491,0.968,0.708,0.321,0.569,0.529,��쓌,9.6,��
2023/08/16,13:10,0.532,0.802,0.493,0.971,0.711,0.320,0.569,0.531,��쓌,12.2,��
2023/08/16,13:20,0.532,0.801,0.492,0.971,0.710,0.321,0.571,0.531,��쓌,12.8,��
2023/08/16,13:30,0.532,0.802,0.491,0.973,0.709,0.321,0.571,0.531,��쓌,12.7,��
2023/08/16,13:40,0.532,0.802,0.493,0.972,0.713,0.321,0.571,0.531,��쓌,11.3,��
2023/08/16,13:50,0.533,0.802,0.494,0.972,0.710,0.321,0.573,0.531,��쓌,10.7,��
2023/08/16,14:00,0.534,0.800,0.493,0.973,0.714,0.321,0.574,0.531,��쓌,10.5,��
2023/08/16,14:10,0.532,0.801,0.494,0.971,0.712,0.323,0.571,0.532,��쓌,11.1,��
2023/08/16,14:20,0.532,0.802,0.492,0.974,0.713,0.321,0.572,0.532,��쓌,10.2,��
2023/08/16,14:30,0.533,0.802,0.495,0.972,0.712,0.322,0.572,0.530,��쓌,11.3,��
2023/08/16,14:40,0.533,0.803,0.494,0.973,0.712,0.321,0.572,0.531,��쓌,11.3,��
2023/08/16,14:50,0.534,0.803,0.494,0.972,0.711,0.321,0.571,0.531,��쓌,12.4,��
2023/08/16,15:00,0.532,0.801,0.492,0.974,0.713,0.320,0.573,0.530,��쓌,11.3,��
2023/08/16,15:10,0.532,0.803,0.493,0.971,0.713,0.319,0.571,0.529,��쓌,10.8,��
2023/08/16,15:20,0.535,0.803,0.492,0.973,0.712,0.321,0.571,0.529,��쓌,11.6,��
2023/08/16,15:30,0.533,0.804,0.493,0.974,0.712,0.321,0.573,0.532,��쓌,11.0,��
2023/08/16,15:40,0.534,0.803,0.495,0.974,0.714,0.321,0.572,0.530,��쓌,13.5,��
2023/08/16,15:50,0.533,0.802,0.493,0.974,0.714,0.320,0.571,0.528,��쓌,13.1,��
2023/08/16,16:00,0.534,0.803,0.493,0.974,0.714,0.321,0.570,0.529,��쓌,15.0,��
2023/08/16,16:10,0.533,0.803,0.493,0.974,0.713,0.321,0.571,0.530,��쓌,12.4,��
2023/08/16,16:20,0.535,0.802,0.493,0.973,0.714,0.321,0.571,0.530,��쓌,13.0,��
2023/08/16,16:30,0.533,0.804,0.493,0.976,0.714,0.321,0.571,0.530,��쓌,10.5,��
2023/08/16,16:40,0.533,0.804,0.495,0.975,0.715,0.321,0.570,0.530,��,10.0,��
2023/08/16,16:50,0.535,0.802,0.494,0.977,0.714,0.320,0.570,0.529,��쓌,10.9,��
2023/08/16,17:00,0.535,0.803,0.493,0.977,0.715,0.321,0.570,0.530,��,9.5,��
2023/08/16,17:10,0.533,0.803,0.494,0.977,0.716,0.320,0.570,0.531,��,10.8,��
2023/08/16,17:20,0.534,0.803,0.494,0.976,0.715,0.322,0.572,0.530,��쓌,10.6,��
2023/08/16,17:30,0.535,0.803,0.494,0.976,0.715,0.321,0.571,0.529,��쓌,11.9,��
2023/08/16,17:40,0.534,0.803,0.492,0.977,0.714,0.322,0.571,0.530,��쓌,11.1,��
2023/08/16,17:50,0.532,0.804,0.493,0.976,0.715,0.322,0.572,0.530,��,10.8,��
2023/08/16,18:00,0.533,0.801,0.494,0.977,0.714,0.321,0.569,0.529,��쓌,11.7,��
2023/08/16,18:10,0.533,0.803,0.494,0.979,0.713,0.320,0.569,0.529,��,9.5,��
2023/08/16,18:20,0.535,0.802,0.493,0.978,0.713,0.322,0.570,0.530,��,8.7,��
2023/08/16,18:30,0.535,0.803,0.493,0.978,0.716,0.321,0.571,0.530,��쓌,9.1,��
2023/08/16,18:40,0.534,0.805,0.495,0.977,0.715,0.322,0.571,0.528,��,8.3,��
2023/08/16,18:50,0.535,0.805,0.493,0.978,0.714,0.322,0.571,0.530,��,7.7,��
2023/08/16,19:00,0.533,0.804,0.494,0.978,0.714,0.321,0.569,0.530,��,8.3,��
2023/08/16,19:10,0.536,0.804,0.496,0.976,0.716,0.322,0.570,0.531,��,9.5,��
2023/08/16,19:20,0.534,0.804,0.496,0.975,0.717,0.323,0.572,0.529,��,7.0,��
2023/08/16,19:30,0.534,0.805,0.494,0.975,0.715,0.323,0.571,0.530,��,8.6,��
2023/08/16,19:40,0.535,0.806,0.495,0.975,0.716,0.322,0.572,0.531,��,7.9,��
2023/08/16,19:50,0.534,0.806,0.495,0.978,0.718,0.321,0.570,0.531,��,8.1,��
2023/08/16,20:00,0.535,0.805,0.495,0.980,0.716,0.322,0.571,0.530,��,9.2,��
2023/08/16,20:10,0.534,0.805,0.494,0.979,0.716,0.323,0.570,0.530,��,10.5,��
2023/08/16,20:20,0.533,0.805,0.495,0.978,0.718,0.322,0.572,0.531,��,9.1,��
2023/08/16,20:30,0.535,0.806,0.495,0.980,0.716,0.322,0.571,0.530,��,9.3,��
2023/08/16,20:40,0.534,0.805,0.495,0.978,0.718,0.324,0.571,0.529,��,9.0,��
2023/08/16,20:50,0.535,0.806,0.496,0.980,0.715,0.322,0.569,0.533,��,9.2,��
2023/08/16,21:00,0.536,0.806,0.494,0.980,0.716,0.322,0.573,0.531,��,8.4,��
2023/08/16,21:10,0.536,0.806,0.495,0.979,0.717,0.322,0.571,0.530,��,8.2,��
2023/08/16,21:20,0.536,0.805,0.496,0.978,0.715,0.324,0.571,0.529,��쓌,7.7,��
2023/08/16,21:30,0.534,0.806,0.495,0.977,0.717,0.322,0.571,0.530,��,8.5,��
2023/08/16,21:40,0.534,0.807,0.495,0.978,0.718,0.322,0.571,0.531,��쓌,10.2,��
2023/08/16,21:50,0.535,0.805,0.496,0.980,0.718,0.322,0.571,0.531,��쓌,10.8,��
2023/08/16,22:00,0.534,0.807,0.496,0.979,0.717,0.323,0.572,0.530,��,8.1,��
2023/08/16,22:10,0.535,0.805,0.496,0.977,0.717,0.323,0.571,0.530,��,6.3,��
2023/08/16,22:20,0.535,0.805,0.495,0.981,0.720,0.323,0.571,0.530,��,7.3,��
2023/08/16,22:30,0.534,0.805,0.495,0.980,0.718,0.323,0.572,0.531,��,6.4,��
2023/08/16,22:40,0.535,0.805,0.496,0.980,0.716,0.322,0.572,0.531,��,6.4,��
2023/08/16,22:50,0.535,0.806,0.496,0.981,0.715,0.322,0.572,0.530,��,6.7,��
2023/08/16,23:00,0.536,0.806,0.493,0.978,0.717,0.323,0.574,0.531,��,7.0,��
2023/08/16,23:10,0.537,0.805,0.494,0.980,0.718,0.323,0.572,0.531,��,7.8,��
2023/08/16,23:20,0.535,0.805,0.494,0.979,0.719,0.323,0.573,0.532,��,8.9,��
2023/08/16,23:30,0.536,0.805,0.495,0.979,0.716,0.321,0.572,0.532,��,9.0,��
2023/08/16,23:40,0.536,0.807,0.496,0.978,0.717,0.321,0.572,0.531,��,8.7,��
2023/08/16,23:50,0.534,0.806,0.495,0.980,0.717,0.323,0.572,0.532,��,9.6,��
